SCP
0 0 0 0 -0 0 -0 -0 -0 -0 -0 -0 -0 0 -0 -0 -0 -0 -0 0 -0 -0 -0 -0 -0 -0 -0 -0 -0 -0 -0 -0 -0 -0 -0 -0 -0 -0 -0 -0 -0 0 0
0 0 0 0 -0 -0 -0 -0 -0 -0 -0 -0 -0 0 -0 -0 -0 -0 -0 0 0 0 -0 0 -0 -0 -0 -0 -0 -0 -0 -0 -0 0 0 0 0 0 -0 -0 -0 0 0
0 0 0 0 -0 -0 -0 -0 -0 -0 -0 -0 -0 -0 -0 -0 -0 -0 -0 0 0 0 0 0 0 -0 -0 -0 -0 -0 -0 -0 0 0 0 0 0 0 0 -0 -0 0 0
-0 0 0 0 0 -0 -0 -0 -0 -0 -0 -0 -0 -0 -0 -0 -0 -0 -0 -0 -0 0 0 -0 -0 0 -0 -0 -0 -0 -0 -0 0 0 0 0 0 0 0 0 0 0 0
0 -0 0 -0 -0 -0 -0 -0 -0 -0 -0 -0 -0 -0 -0 -0 -0 -0 -0 -0 -0 -0 -0 -0 0 0 0 -0 -0 -0 -0 0 0 0 0 0 0 0 0 0 0 0 0
0 -0 -0 -0 -0 -0 -0 -0 -0 -0 -0 -0 -0 -0 -0 -0 -0 -0 -0 -0 -0 -0 0 0 0 0 0 0 -0 -0 -0 -0 0 0 0 0 0 0 0 0 0 0 0
0 0 0 0 -0 -0 -0 -0 -0 -0 -0 -0 -0 -0 -0 -0 -0 -0 -0 -0 -0 0 0 0 0 0 -0 0 -0 -0 -0 -0 0 -0 0 0 0 0 0 0 0 0 0
0 0 0 0 -0 -0 -0 -0 -0 -0 -0 -0 -0 -0 -0 -0 -0 -0 -0 0 0 0 0 0 0 -0 -0 -0 -0 -0 -0 -0 -0 0 0 0 0 0 0 0 0 0 0
0 0 0 0 0 0 -0 -0 -0 -0 -0 -0 -0 -0 0 -0 0 0 0 0 0 0 0 0 0 -0 0 -0 -0 -0 -0 -0 -0 0 0 0 0 0 0 0 0 0 0
0 0 -0 0 0 0 0 0 0 0 0 -0 -0 0 0 0 0 0 0 0 0 0 0 0 0 0 0 0 0 0 0 0 0 0 0 0 0 0 0 0 0 0 0
0 0 0 0 0 0 0 0 0 0 0 0 0 0 0 0 0 0 0 0 0 0 0 0 0 0 0 0 0 0 0 0 0 0 0 0 0 0 0 0 0 0 0
0 0 0 0 0 0 0 0 0 0 0 0 0 0 0 0 0 0 0 0 0 0 0 0 0 0 0 0 0 0 0 0 0 0 0 0 0 0 0 0 0 0 0
0 0 0 0 0 0 0 0 0 0 0 0 0 0 0 0 0 0 0 0 0 0 0 0 0 0 0 0 0 0 0 0 0 0 0 0 0 0 0 0 0 0 0
0 0 0 0 0 0 0 0 0 0 0 0 0 0 0 0 0 0 0 0 0 0 0 0 0 0 0 0 0 0 0 0 0 0 0 1 0 0 0 0 0 0 0
0 0 0 0 0 0 0 0 0 0 0 0 0 0 0 0 0 0 0 0 0 0 0 0 0 0 0 0 0 0 0 0 0 0 0 1 1 1 1 0 0 0 0
1 0 0 0 0 0 0 1 0 0 0 0 0 0 0 0 1 0 0 0 0 0 0 0 0 0 0 0 0 0 0 1 1 1 0 1 1 1 1 1 1 0 0
1 1 1 0 1 0 0 0 0 0 0 0 0 0 0 1 1 1 0 0 0 0 0 0 0 0 0 0 0 0 1 1 1 1 1 1 1 2 1 1 1 0 0
3 2 1 0 0 0 1 0 0 0 0 0 0 0 0 0 1 1 0 0 0 0 0 0 0 0 0 0 0 0 1 1 1 2 2 1 0 2 2 0 1 0 0
3 2 2 1 1 1 1 1 1 0 0 0 0 -0 -0 -0 0 3 0 0 1 0 0 0 0 0 1 1 1 1 1 1 2 1 2 2 3 3 3 0 0 0 0
1 2 2 1 1 1 1 1 1 1 1 0 0 0 0 1 1 2 1 1 1 0 0 0 1 0 1 1 1 1 2 2 2 2 2 2 2 2 1 0 0 0 0
1 1 1 2 2 2 1 1 1 1 0 0 1 2 1 1 1 1 1 1 1 0 1 2 1 1 1 1 2 1 1 3 2 1 2 1 3 2 1 1 1 0 0
0 0 1 1 2 2 2 2 1 1 1 1 1 0 1 1 1 2 2 1 1 1 2 3 4 4 2 2 2 1 0 1 1 0 0 0 1 1 0 0 0 1 0
0 0 0 0 1 1 2 2 3 3 2 2 1 1 2 1 2 1 1 2 3 2 5 5 4 3 3 2 4 2 0 0 1 0 0 0 1 1 0 0 1 0 0
0 0 1 1 1 1 1 4 5 4 3 3 2 4 4 2 2 2 3 2 3 4 4 3 3 3 3 2 2 4 4 2 1 0 1 1 0 0 0 0 1 0 0
0 0 0 1 1 1 1 0 3 2 2 1 6 4 3 3 3 1 2 2 2 2 5 3 3 3 4 5 3 3 7 3 2 1 0 0 0 0 0 0 0 0 1
0 0 0 1 1 1 1 1 1 1 1 4 2 2 2 2 3 3 3 3 6 7 5 3 3 3 4 5 5 4 6 7 3 1 1 1 0 1 1 1 1 0 1
Wind_Speed_500mb
38 53 47 44 41 39 44 47 42 37 34 31 29 30 31 29 27 27 27 26 23 21 20 24 29 31 31 31 31 28 27 25 23 24 26 24 25 25 27 28 30 9 13
46 56 48 44 42 41 46 47 42 37 33 29 28 29 31 29 26 25 25 23 20 20 20 24 28 29 28 28 28 28 27 26 25 28 29 30 22 21 22 24 25 16 18
47 56 49 44 43 43 47 48 43 38 32 27 25 28 31 27 24 22 20 19 18 20 21 22 24 22 22 21 20 20 21 22 27 34 33 17 17 18 17 17 18 17 18
49 56 51 46 44 44 46 47 44 39 32 26 23 28 30 26 22 20 18 17 18 19 21 21 20 17 17 15 16 15 15 17 20 27 27 7 4 14 14 14 16 15 13
49 49 49 44 43 46 47 47 44 39 32 26 23 28 30 26 22 19 17 17 17 18 19 19 17 15 14 12 12 12 12 14 21 22 12 1 3 13 10 10 12 13 14
48 45 50 44 43 45 46 44 41 37 33 27 24 29 30 26 21 17 15 15 16 17 18 17 16 16 13 11 9 6 6 11 22 16 5 10 4 10 11 11 11 10 10
48 44 49 43 41 42 42 41 40 37 33 28 27 31 31 26 20 16 14 13 13 14 16 16 15 15 13 10 9 5 2 5 9 3 5 7 15 16 11 9 9 9 9
47 47 50 46 41 40 37 36 37 36 33 29 30 32 31 26 20 16 13 12 12 12 14 16 17 16 15 15 15 13 10 8 4 13 11 8 24 19 14 13 11 10 10
45 48 55 49 44 40 37 35 35 33 31 29 30 31 30 26 20 16 13 12 12 12 12 14 17 18 18 19 19 18 18 17 17 11 18 16 26 26 20 16 15 16 15
44 45 49 49 46 42 38 33 30 29 28 28 29 30 29 25 20 16 14 12 13 13 13 14 17 18 18 18 18 19 19 21 18 16 22 24 34 27 22 20 20 21 22
44 43 47 45 44 39 38 37 32 29 28 28 28 29 28 25 22 19 19 14 14 16 16 17 18 17 17 16 15 20 22 22 17 22 20 28 37 29 22 21 21 22 25
50 47 46 45 43 40 34 38 37 35 35 34 33 33 30 23 20 17 23 18 18 17 17 19 20 20 18 14 24 27 22 14 21 23 23 34 39 28 25 25 28 26 25
48 45 47 49 46 41 35 38 31 30 29 30 29 31 28 24 24 27 19 25 24 21 18 17 23 18 11 16 16 20 21 24 22 23 27 36 43 38 32 32 28 24 26
48 45 44 45 47 44 34 35 31 29 28 27 30 32 30 29 28 25 24 20 21 21 18 18 17 15 22 21 22 23 23 23 23 24 25 36 42 39 33 30 28 29 30
46 45 44 44 44 47 41 32 32 32 30 27 29 32 29 26 28 26 28 27 28 22 21 22 18 22 20 20 20 20 22 24 25 27 25 35 39 35 37 37 33 31 32
44 45 42 43 42 41 40 35 33 32 29 30 28 29 33 26 28 24 26 29 27 26 28 23 23 23 22 20 22 25 25 24 23 27 30 34 39 41 45 38 34 31 34
41 43 44 40 40 43 39 34 32 29 29 28 28 31 31 33 33 32 24 24 26 30 29 29 30 26 25 25 25 26 27 28 29 31 30 36 40 48 39 38 42 31 32
41 44 44 39 39 41 38 34 30 27 27 27 26 27 34 36 35 23 26 29 29 31 27 26 24 23 25 25 26 28 32 34 31 36 36 31 42 48 41 34 39 34 35
43 44 44 40 38 37 37 34 31 28 29 29 37 46 34 39 39 33 34 32 36 31 30 25 27 27 26 28 29 32 32 33 33 31 37 40 46 50 61 40 33 37 40
31 35 37 40 37 34 32 32 27 29 30 33 33 35 37 37 38 39 37 36 44 33 32 26 32 26 28 30 32 34 36 35 35 37 43 47 45 54 71 23 35 34 36
30 30 30 36 37 37 34 32 33 31 30 30 33 42 38 35 37 37 35 31 47 40 35 31 35 33 32 28 39 36 43 41 45 34 35 38 47 46 59 40 29 41 33
23 27 28 28 32 39 33 32 28 31 30 32 31 38 41 39 38 36 37 38 43 35 36 33 33 31 34 33 40 34 41 40 31 41 44 50 40 39 48 49 31 44 42
24 21 25 28 30 31 31 28 31 25 28 27 29 33 35 40 39 38 40 34 41 39 35 37 36 38 40 39 42 31 27 42 37 45 49 44 46 32 37 45 50 47 50
22 20 19 21 24 25 29 35 36 30 30 30 35 34 40 38 30 35 36 36 37 31 31 35 39 42 38 39 37 42 45 48 39 41 48 53 51 53 60 57 61 43 49
23 20 19 19 19 23 23 31 35 32 34 32 35 37 29 30 26 32 29 23 29 21 26 32 36 41 45 52 57 50 52 40 46 47 49 49 65 60 53 64 59 66 58
28 25 23 19 15 16 22 24 36 26 25 23 24 26 22 22 21 29 29 24 25 31 35 38 44 45 48 59 62 61 60 47 51 50 53 58 64 59 58 61 66 68 73
Wind_Direction_500mb
152 159 154 152 153 162 166 162 162 155 147 138 131 131 136 135 129 130 131 130 128 126 127 119 116 109 101 98 95 94 91 90 88 86 83 79 81 82 87 87 83 73 69
154 157 154 154 154 162 168 165 165 159 151 143 136 137 143 143 138 134 136 135 135 133 130 127 121 111 103 97 95 92 88 85 85 84 75 57 63 74 83 89 96 90 74
152 156 155 157 156 163 168 168 168 164 158 149 143 145 150 150 146 143 141 139 137 134 133 133 129 114 106 103 97 95 94 90 87 76 61 74 12 56 73 82 84 83 74
152 156 158 157 156 163 169 171 170 169 165 156 153 155 156 155 153 148 146 148 144 141 139 144 141 127 117 116 106 97 93 91 88 73 65 78 354 30 58 72 77 72 76
151 153 158 157 157 166 170 172 173 174 172 168 164 164 163 161 157 151 148 153 153 151 151 154 155 150 142 135 127 104 97 90 70 64 61 132 69 325 29 40 59 57 49
152 159 157 158 157 161 167 173 178 181 181 178 174 172 168 166 164 155 155 159 161 164 168 169 170 174 169 158 154 124 114 98 66 25 306 285 135 299 1 19 30 37 27
154 163 158 158 155 157 164 176 182 187 189 186 179 177 174 173 172 163 164 166 170 174 184 190 188 192 203 210 206 209 145 117 61 27 305 273 263 299 319 338 357 9 6
158 161 162 159 158 156 159 169 181 188 190 187 181 180 179 183 181 177 176 180 180 184 198 206 210 216 227 241 245 245 255 273 292 303 287 285 266 288 288 294 305 323 336
163 157 164 163 162 160 162 165 172 179 182 181 182 183 185 189 190 190 196 197 192 196 209 218 223 231 238 247 254 258 264 276 289 290 283 283 268 283 281 285 292 295 296
164 167 165 169 168 167 165 162 163 169 175 180 183 186 191 196 199 202 210 210 212 210 215 225 232 237 246 254 264 275 281 281 294 294 282 268 273 279 272 283 291 291 284
168 171 168 170 172 169 173 168 166 167 173 181 187 193 196 202 203 210 221 217 225 228 229 235 242 249 256 264 287 296 289 289 283 278 282 272 281 282 269 282 294 292 288
174 175 177 174 176 172 177 180 177 179 182 186 193 197 198 191 208 210 242 231 232 237 243 250 255 261 268 288 292 306 318 292 279 279 277 275 285 284 275 283 294 292 291
179 178 181 179 182 177 179 187 183 188 191 192 196 204 185 199 214 206 233 245 238 239 245 261 268 267 293 268 258 274 275 279 286 284 277 282 289 286 283 286 288 290 295
182 182 185 183 183 181 186 190 190 194 197 196 202 212 196 197 213 213 218 229 237 238 232 225 247 269 249 266 269 270 276 278 284 282 283 283 292 295 287 285 280 285 288
187 186 187 189 189 186 188 196 194 198 205 206 211 214 200 211 215 219 217 218 226 228 235 233 243 246 259 269 271 271 272 269 272 280 277 282 287 295 288 281 277 274 281
188 189 190 194 199 194 194 202 201 206 213 208 216 219 209 216 231 221 226 234 231 226 229 236 242 245 261 256 256 268 271 270 276 279 276 279 285 281 283 271 262 264 278
190 193 194 196 203 200 206 207 207 218 208 218 217 222 227 218 222 225 238 237 236 237 228 231 233 242 249 256 261 261 263 266 270 270 269 266 276 285 283 284 266 260 274
192 193 194 200 207 209 208 213 213 217 222 222 224 231 223 220 224 252 234 242 234 233 233 238 245 250 252 256 262 263 271 267 267 258 260 260 269 274 265 250 253 263 272
196 209 201 200 204 211 208 211 217 219 219 217 221 221 234 232 234 235 238 237 240 236 233 231 236 242 250 258 264 270 267 269 271 271 267 264 260 274 266 252 265 269 272
193 201 205 202 205 208 214 215 216 221 226 224 232 235 237 234 235 241 229 226 241 236 236 228 236 243 249 260 265 271 264 264 269 270 272 269 270 264 262 253 256 273 282
197 197 199 207 207 205 212 216 221 225 235 236 228 247 241 245 243 243 249 237 251 239 231 235 245 250 254 260 270 275 272 267 281 274 269 271 264 265 276 270 266 260 265
191 201 206 206 209 211 207 212 218 227 238 245 254 262 256 248 254 254 251 238 247 240 245 237 234 241 251 255 259 269 270 277 252 268 283 280 272 278 280 277 260 269 252
195 204 205 210 211 218 208 220 222 222 230 244 250 249 251 244 243 241 246 236 237 239 247 245 248 251 255 257 254 246 272 276 276 275 281 290 267 270 268 275 265 265 266
202 198 198 201 209 218 224 222 230 226 242 248 251 251 242 241 222 240 239 236 247 246 257 262 256 257 255 255 251 255 264 268 268 279 280 283 275 275 267 276 276 269 269
207 207 210 212 213 215 228 216 235 234 244 255 250 256 263 262 252 254 253 246 261 267 273 268 265 256 263 262 266 267 268 263 266 259 271 276 289 272 259 258 266 255 264
218 216 198 190 202 217 215 230 223 231 237 249 241 245 252 250 250 237 247 262 248 256 265 267 266 270 269 267 264 266 259 262 264 265 270 275 278 268 267 269 268 254 261
Wind_Speed_850mb
38 53 47 44 41 39 44 47 42 37 34 31 29 30 31 29 27 27 27 26 23 21 20 24 29 31 31 31 31 28 27 25 23 24 26 24 25 25 27 28 30 9 13
46 56 48 44 42 41 46 47 42 37 33 29 28 29 31 29 26 25 25 23 20 20 20 24 28 29 28 28 28 28 27 26 25 28 29 30 22 21 22 24 25 16 18
47 56 49 44 43 43 47 48 43 38 32 27 25 28 31 27 24 22 20 19 18 20 21 22 24 22 22 21 20 20 21 22 27 34 33 17 17 18 17 17 18 17 18
49 56 51 46 44 44 46 47 44 39 32 26 23 28 30 26 22 20 18 17 18 19 21 21 20 17 17 15 16 15 15 17 20 27 27 7 4 14 14 14 16 15 13
49 49 49 44 43 46 47 47 44 39 32 26 23 28 30 26 22 19 17 17 17 18 19 19 17 15 14 12 12 12 12 14 21 22 12 1 3 13 10 10 12 13 14
48 45 50 44 43 45 46 44 41 37 33 27 24 29 30 26 21 17 15 15 16 17 18 17 16 16 13 11 9 6 6 11 22 16 5 10 4 10 11 11 11 10 10
48 44 49 43 41 42 42 41 40 37 33 28 27 31 31 26 20 16 14 13 13 14 16 16 15 15 13 10 9 5 2 5 9 3 5 7 15 16 11 9 9 9 9
47 47 50 46 41 40 37 36 37 36 33 29 30 32 31 26 20 16 13 12 12 12 14 16 17 16 15 15 15 13 10 8 4 13 11 8 24 19 14 13 11 10 10
45 48 55 49 44 40 37 35 35 33 31 29 30 31 30 26 20 16 13 12 12 12 12 14 17 18 18 19 19 18 18 17 17 11 18 16 26 26 20 16 15 16 15
44 45 49 49 46 42 38 33 30 29 28 28 29 30 29 25 20 16 14 12 13 13 13 14 17 18 18 18 18 19 19 21 18 16 22 24 34 27 22 20 20 21 22
44 43 47 45 44 39 38 37 32 29 28 28 28 29 28 25 22 19 19 14 14 16 16 17 18 17 17 16 15 20 22 22 17 22 20 28 37 29 22 21 21 22 25
50 47 46 45 43 40 34 38 37 35 35 34 33 33 30 23 20 17 23 18 18 17 17 19 20 20 18 14 24 27 22 14 21 23 23 34 39 28 25 25 28 26 25
48 45 47 49 46 41 35 38 31 30 29 30 29 31 28 24 24 27 19 25 24 21 18 17 23 18 11 16 16 20 21 24 22 23 27 36 43 38 32 32 28 24 26
48 45 44 45 47 44 34 35 31 29 28 27 30 32 30 29 28 25 24 20 21 21 18 18 17 15 22 21 22 23 23 23 23 24 25 36 42 39 33 30 28 29 30
46 45 44 44 44 47 41 32 32 32 30 27 29 32 29 26 28 26 28 27 28 22 21 22 18 22 20 20 20 20 22 24 25 27 25 35 39 35 37 37 33 31 32
44 45 42 43 42 41 40 35 33 32 29 30 28 29 33 26 28 24 26 29 27 26 28 23 23 23 22 20 22 25 25 24 23 27 30 34 39 41 45 38 34 31 34
41 43 44 40 40 43 39 34 32 29 29 28 28 31 31 33 33 32 24 24 26 30 29 29 30 26 25 25 25 26 27 28 29 31 30 36 40 48 39 38 42 31 32
41 44 44 39 39 41 38 34 30 27 27 27 26 27 34 36 35 23 26 29 29 31 27 26 24 23 25 25 26 28 32 34 31 36 36 31 42 48 41 34 39 34 35
43 44 44 40 38 37 37 34 31 28 29 29 37 46 34 39 39 33 34 32 36 31 30 25 27 27 26 28 29 32 32 33 33 31 37 40 46 50 61 40 33 37 40
31 35 37 40 37 34 32 32 27 29 30 33 33 35 37 37 38 39 37 36 44 33 32 26 32 26 28 30 32 34 36 35 35 37 43 47 45 54 71 23 35 34 36
30 30 30 36 37 37 34 32 33 31 30 30 33 42 38 35 37 37 35 31 47 40 35 31 35 33 32 28 39 36 43 41 45 34 35 38 47 46 59 40 29 41 33
23 27 28 28 32 39 33 32 28 31 30 32 31 38 41 39 38 36 37 38 43 35 36 33 33 31 34 33 40 34 41 40 31 41 44 50 40 39 48 49 31 44 42
24 21 25 28 30 31 31 28 31 25 28 27 29 33 35 40 39 38 40 34 41 39 35 37 36 38 40 39 42 31 27 42 37 45 49 44 46 32 37 45 50 47 50
22 20 19 21 24 25 29 35 36 30 30 30 35 34 40 38 30 35 36 36 37 31 31 35 39 42 38 39 37 42 45 48 39 41 48 53 51 53 60 57 61 43 49
23 20 19 19 19 23 23 31 35 32 34 32 35 37 29 30 26 32 29 23 29 21 26 32 36 41 45 52 57 50 52 40 46 47 49 49 65 60 53 64 59 66 58
28 25 23 19 15 16 22 24 36 26 25 23 24 26 22 22 21 29 29 24 25 31 35 38 44 45 48 59 62 61 60 47 51 50 53 58 64 59 58 61 66 68 73
Wind_Direction_850mb
152 159 154 152 153 162 166 162 162 155 147 138 131 131 136 135 129 130 131 130 128 126 127 119 116 109 101 98 95 94 91 90 88 86 83 79 81 82 87 87 83 73 69
154 157 154 154 154 162 168 165 165 159 151 143 136 137 143 143 138 134 136 135 135 133 130 127 121 111 103 97 95 92 88 85 85 84 75 57 63 74 83 89 96 90 74
152 156 155 157 156 163 168 168 168 164 158 149 143 145 150 150 146 143 141 139 137 134 133 133 129 114 106 103 97 95 94 90 87 76 61 74 12 56 73 82 84 83 74
152 156 158 157 156 163 169 171 170 169 165 156 153 155 156 155 153 148 146 148 144 141 139 144 141 127 117 116 106 97 93 91 88 73 65 78 354 30 58 72 77 72 76
151 153 158 157 157 166 170 172 173 174 172 168 164 164 163 161 157 151 148 153 153 151 151 154 155 150 142 135 127 104 97 90 70 64 61 132 69 325 29 40 59 57 49
152 159 157 158 157 161 167 173 178 181 181 178 174 172 168 166 164 155 155 159 161 164 168 169 170 174 169 158 154 124 114 98 66 25 306 285 135 299 1 19 30 37 27
154 163 158 158 155 157 164 176 182 187 189 186 179 177 174 173 172 163 164 166 170 174 184 190 188 192 203 210 206 209 145 117 61 27 305 273 263 299 319 338 357 9 6
158 161 162 159 158 156 159 169 181 188 190 187 181 180 179 183 181 177 176 180 180 184 198 206 210 216 227 241 245 245 255 273 292 303 287 285 266 288 288 294 305 323 336
163 157 164 163 162 160 162 165 172 179 182 181 182 183 185 189 190 190 196 197 192 196 209 218 223 231 238 247 254 258 264 276 289 290 283 283 268 283 281 285 292 295 296
164 167 165 169 168 167 165 162 163 169 175 180 183 186 191 196 199 202 210 210 212 210 215 225 232 237 246 254 264 275 281 281 294 294 282 268 273 279 272 283 291 291 284
168 171 168 170 172 169 173 168 166 167 173 181 187 193 196 202 203 210 221 217 225 228 229 235 242 249 256 264 287 296 289 289 283 278 282 272 281 282 269 282 294 292 288
174 175 177 174 176 172 177 180 177 179 182 186 193 197 198 191 208 210 242 231 232 237 243 250 255 261 268 288 292 306 318 292 279 279 277 275 285 284 275 283 294 292 291
179 178 181 179 182 177 179 187 183 188 191 192 196 204 185 199 214 206 233 245 238 239 245 261 268 267 293 268 258 274 275 279 286 284 277 282 289 286 283 286 288 290 295
182 182 185 183 183 181 186 190 190 194 197 196 202 212 196 197 213 213 218 229 237 238 232 225 247 269 249 266 269 270 276 278 284 282 283 283 292 295 287 285 280 285 288
187 186 187 189 189 186 188 196 194 198 205 206 211 214 200 211 215 219 217 218 226 228 235 233 243 246 259 269 271 271 272 269 272 280 277 282 287 295 288 281 277 274 281
188 189 190 194 199 194 194 202 201 206 213 208 216 219 209 216 231 221 226 234 231 226 229 236 242 245 261 256 256 268 271 270 276 279 276 279 285 281 283 271 262 264 278
190 193 194 196 203 200 206 207 207 218 208 218 217 222 227 218 222 225 238 237 236 237 228 231 233 242 249 256 261 261 263 266 270 270 269 266 276 285 283 284 266 260 274
192 193 194 200 207 209 208 213 213 217 222 222 224 231 223 220 224 252 234 242 234 233 233 238 245 250 252 256 262 263 271 267 267 258 260 260 269 274 265 250 253 263 272
196 209 201 200 204 211 208 211 217 219 219 217 221 221 234 232 234 235 238 237 240 236 233 231 236 242 250 258 264 270 267 269 271 271 267 264 260 274 266 252 265 269 272
193 201 205 202 205 208 214 215 216 221 226 224 232 235 237 234 235 241 229 226 241 236 236 228 236 243 249 260 265 271 264 264 269 270 272 269 270 264 262 253 256 273 282
197 197 199 207 207 205 212 216 221 225 235 236 228 247 241 245 243 243 249 237 251 239 231 235 245 250 254 260 270 275 272 267 281 274 269 271 264 265 276 270 266 260 265
191 201 206 206 209 211 207 212 218 227 238 245 254 262 256 248 254 254 251 238 247 240 245 237 234 241 251 255 259 269 270 277 252 268 283 280 272 278 280 277 260 269 252
195 204 205 210 211 218 208 220 222 222 230 244 250 249 251 244 243 241 246 236 237 239 247 245 248 251 255 257 254 246 272 276 276 275 281 290 267 270 268 275 265 265 266
202 198 198 201 209 218 224 222 230 226 242 248 251 251 242 241 222 240 239 236 247 246 257 262 256 257 255 255 251 255 264 268 268 279 280 283 275 275 267 276 276 269 269
207 207 210 212 213 215 228 216 235 234 244 255 250 256 263 262 252 254 253 246 261 267 273 268 265 256 263 262 266 267 268 263 266 259 271 276 289 272 259 258 266 255 264
218 216 198 190 202 217 215 230 223 231 237 249 241 245 252 250 250 237 247 262 248 256 265 267 266 270 269 267 264 266 259 262 264 265 270 275 278 268 267 269 268 254 261